[[{"header":{"parameterUnit":"m.s-1","parameterCategory":1,"la1":30.2991,"la2":30.254,"lo1":-89.0895,"lo2":-89.0444,"dy":0.0017,"dx":0.0017,"nx":28,"ny":28,"refTime":"2024-05-30T21:00:00:Z","depth":0,"parameterNumber":2,"parameterNumberName":"U-component_of_WINDS"},"data":[0,0,0,0,0,0,0,0,0,0,0,0,0,0,0,0,0,0,0,0,0,0,0,0,0,0,0,0,0,0,0,0,0,0,0,0,0,0,0,0,0,0,0,0,0,0,0,0,0,0,0,0,0,0,0,0,0,0,-2.7827,-2.7828,0,-2.7929,-2.7931,-2.7932,-2.7943,-2.7942,-2.7941,-2.794,-2.8042,-2.8046,-2.805,0,0,0,0,0,0,0,0,0,0,0,0,0,-2.7641,-2.7644,-2.7827,-2.7828,-2.783,-2.7929,-2.7931,-2.7932,-2.7943,-2.7942,-2.7941,-2.7939,-2.8041,-2.8045,-2.805,0,0,0,0,0,0,0,0,0,0,0,0,0,-2.773,-2.7645,-2.7827,-2.7847,-2.785,-2.7929,-2.7931,-2.7932,-2.7943,-2.7942,-2.794,-2.7939,-2.804,-2.8045,-2.805,-2.8115,0,0,-2.8067,-2.807,0,0,0,0,0,0,0,0,-2.7725,-2.7737,-2.7843,-2.7846,-2.7849,-2.7922,-2.7902,-2.7994,-2.7944,-2.7908,-2.794,-2.7938,-2.8003,-2.8012,-2.8034,-2.812,-2.8124,-2.8068,-2.8071,-2.8074,-2.8075,0,0,0,0,0,0,0,-2.7719,-2.7733,-2.7867,-2.7844,-2.7848,-2.7851,-2.7862,-2.792,-2.7963,-2.7911,-2.7912,-2.7924,-2.8005,-2.8029,-2.8037,-2.8126,-2.8068,-2.8073,-2.8076,-2.8078,-2.8272,-2.8273,0,0,0,0,0,0,-2.7709,-2.7727,-2.7864,-2.787,-2.7782,-2.7856,-2.7868,-2.79,-2.7962,-2.797,-2.7925,-2.7924,-2.802,-2.803,-2.804,-2.8121,-2.8074,-2.8079,-2.8082,-2.827,-2.8272,-2.8274,0,0,0,0,0,0,-2.7705,-2.7721,-2.786,-2.7799,-2.7817,-2.7861,-2.7896,-2.7903,-2.7927,-2.7973,-2.7981,-2.7942,-2.8019,-2.8033,-2.8097,-2.8124,-2.8081,-2.8086,-2.8268,-2.8271,-2.8273,-2.8282,0,0,0,0,0,0,-2.77,-2.772,-2.7745,-2.78,-2.782,-2.7915,-2.7898,-2.7906,-2.7937,-2.7936,-2.7991,-2.7998,-2.8019,-2.8089,-2.8103,-2.8131,-2.8091,-2.8265,-2.8269,-2.8272,-2.8279,-2.8284,-2.8289,0,0,0,0,0,-2.7693,-2.7742,-2.7746,-2.7762,-2.7853,-2.7917,-2.7928,-2.7952,-2.7939,-2.7964,-2.7995,-2.7997,-2.812,-2.8095,-2.8111,-2.8142,-2.8264,-2.8268,-2.8272,-2.8277,-2.8283,-2.8289,0,0,0,0,0,0,-2.7687,-2.775,-2.7754,-2.7823,-2.7865,-2.7918,-2.7951,-2.7958,-2.8003,-2.8001,-2.8028,-2.804,-2.8103,-2.8129,-2.8101,-2.8208,-2.819,-2.8198,-2.8189,-2.8195,-2.82,-2.8192,-2.8095,0,0,0,0,0,-2.7695,-2.7742,-2.7793,-2.7849,-2.787,-2.7907,-2.7936,-2.7951,-2.7995,-2.8012,-2.8046,-2.8088,-2.8137,-2.8168,-2.8215,-2.8284,-2.8296,-2.8313,-2.8318,-2.8321,-2.8327,-2.8366,-2.8374,-2.8288,-2.8288,-2.8287,0,0,-2.7709,-2.7749,-2.7777,-2.7849,-2.7883,-2.7931,-2.7922,-2.7973,-2.8008,-2.8019,-2.8082,-2.811,-2.8159,-2.8226,-2.8257,-2.8249,-2.8354,-2.8327,-2.8329,-2.8333,-2.8371,-2.8379,-2.8386,-2.829,-2.829,-2.8289,0,0,-2.776,-2.7795,-2.7845,-2.788,-2.7933,-2.7957,-2.797,-2.8023,-2.8042,-2.8106,-2.8116,-2.8159,-2.8241,-2.8276,-2.8304,-2.8372,-2.8375,-2.8386,-2.8411,-2.8449,-2.8455,-2.8462,-2.8485,-2.8493,-2.8392,-2.8392,-2.8392,0,-2.7771,-2.7844,-2.787,-2.7922,-2.7953,-2.7967,-2.8019,-2.8051,-2.8116,-2.8137,-2.8128,-2.8233,-2.8267,-2.8342,-2.8359,-2.8382,-2.8397,-2.8379,-2.8453,-2.8459,-2.8465,-2.8488,-2.8497,-2.8393,-2.8393,-2.8393,-2.8393,0,-2.7855,-2.7906,-2.7941,-2.8004,-2.804,-2.8091,-2.8125,-2.8158,-2.8171,-2.8196,-2.8262,-2.8304,-2.836,-2.8379,-2.8391,-2.8458,-2.8451,-2.8447,-2.8429,-2.8474,-2.8496,-2.8505,-2.8394,-2.8394,-2.8394,-2.8393,0,0,-2.7903,-2.7982,-2.7994,-2.8023,-2.8083,-2.8123,-2.8175,-2.8231,-2.8259,-2.8304,-2.8348,-2.8419,-2.8416,-2.8449,-2.8465,-2.8499,-2.8549,-2.8491,-2.8492,-2.8499,-2.8625,-2.8626,-2.8636,-2.8553,-2.8555,-2.8556,-2.862,0,-2.796,-2.8053,-2.808,-2.8159,-2.8206,-2.8222,-2.8267,-2.8309,-2.8335,-2.8379,-2.8408,-2.8458,-2.8451,-2.8471,-2.8505,-2.8536,-2.8574,-2.8532,-2.8594,-2.8596,-2.858,-2.8647,-2.8649,-2.8707,-2.8629,-2.8631,-2.8632,0,-2.8038,-2.8086,-2.817,-2.8225,-2.8246,-2.8286,-2.834,-2.8383,-2.8431,-2.8448,-2.8485,-2.8499,-2.8555,-2.8536,-2.8612,-2.8583,-2.861,-2.863,-2.8633,-2.8638,-2.8615,-2.8653,-2.8726,-2.8735,-2.8645,-2.8644,-2.8643,0,-2.8064,-2.8149,-2.8211,-2.8236,-2.8301,-2.833,-2.8358,-2.8405,-2.8438,-2.8485,-2.8507,-2.856,-2.8588,-2.8629,-2.8658,-2.8641,-2.8732,-2.8715,-2.8747,-2.8746,-2.8764,-2.8762,-2.8841,-2.8784,-2.8783,-2.8783,-2.8783,0,-2.8124,-2.8175,-2.8223,-2.8261,-2.8318,-2.8349,-2.8405,-2.8434,-2.8476,-2.852,-2.8537,-2.8577,-2.8613,-2.8659,-2.8681,-2.8741,-2.8754,-2.8769,-2.8774,-2.8767,-2.8765,-2.8784,-2.878,-2.8786,-2.8785,-2.8785,-2.8784,0,-2.8162,-2.8196,-2.8264,-2.8322,-2.8338,-2.8378,-2.8427,-2.8464,-2.8492,-2.8547,-2.8562,-2.8606,-2.866,-2.8694,-2.8762,-2.8778,-2.8844,-2.8848,-2.8828,-2.883,-2.886,-2.8856,-2.8952,-2.8966,-2.8901,-2.8901,-2.8902,0,-2.8197,-2.8237,-2.8299,-2.833,-2.8359,-2.8409,-2.8443,-2.8475,-2.8509,-2.8568,-2.8598,-2.8654,-2.8701,-2.8788,-2.8825,-2.8878,-2.8883,-2.8913,-2.8891,-2.8883,-2.8883,-2.888,-2.8884,-2.8916,-2.8917,-2.8917,-2.8918,0,-2.8256,-2.8272,-2.832,-2.8375,-2.8415,-2.8459,-2.8503,-2.8528,-2.8568,-2.8605,-2.8662,-2.8698,-2.877,-2.8825,-2.8882,-2.8912,-2.8921,-2.8925,-2.8935,-2.8927,-2.8913,-2.8921,-2.8837,-2.8922,-2.8922,-2.8921,-2.8921,-2.8921,-2.8293,-2.833,-2.838,-2.8433,-2.847,-2.8511,-2.855,-2.8583,-2.8631,-2.8692,-2.8709,-2.8768,-2.8817,-2.8894,-2.8925,-2.8972,-2.8967,-2.8982,-2.8986,-2.8988,-2.8989,-2.8907,-2.8983,-2.8983,-2.8983,-2.8983,-2.8983,0,-2.8353,-2.8386,-2.8435,-2.8497,-2.854,-2.8547,-2.8597,-2.8631,-2.8684,-2.8729,-2.8775,-2.884,-2.8895,-2.8938,-2.8994,-2.9023,-2.9029,-2.9036,-2.9034,-2.9041,-2.899,-2.8975,-2.9031,-2.9031,-2.9031,-2.9031,-2.9031,-2.9031,-2.8389,-2.845,-2.8472,-2.8553,-2.8586,-2.8645,-2.8673,-2.8711,-2.8747,-2.882,-2.8866,-2.8894,-2.8938,-2.8998,-2.9048,-2.906,-2.9079,-2.9086,-2.9098,-2.9049,-2.9044,-2.9039,-2.9025,-2.909,-2.909,-2.9144,-2.9145,-2.9145]},{"header":{"parameterUnit":"m.s-1","parameterCategory":1,"la1":30.2991,"la2":30.254,"lo1":-89.0895,"lo2":-89.0444,"dy":0.0017,"dx":0.0017,"nx":28,"ny":28,"refTime":"2024-05-30T21:00:00:Z","depth":0,"parameterNumber":3,"parameterNumberName":"V-component_of_WINDS"},"data":[0,0,0,0,0,0,0,0,0,0,0,0,0,0,0,0,0,0,0,0,0,0,0,0,0,0,0,0,0,0,0,0,0,0,0,0,0,0,0,0,0,0,0,0,0,0,0,0,0,0,0,0,0,0,0,0,0,0,6.1367,6.1367,0,6.1383,6.1383,6.1383,6.1346,6.1345,6.1344,6.1343,6.1356,6.1357,6.1359,0,0,0,0,0,0,0,0,0,0,0,0,0,6.1304,6.1305,6.1367,6.1367,6.1367,6.1383,6.1383,6.1383,6.1346,6.1345,6.1343,6.1342,6.1355,6.1357,6.1359,0,0,0,0,0,0,0,0,0,0,0,0,0,6.1326,6.1305,6.1367,6.1351,6.135,6.1383,6.1383,6.1383,6.1347,6.1345,6.1343,6.1342,6.1355,6.1357,6.1359,6.1407,0,0,6.1366,6.1367,0,0,0,0,0,0,0,0,6.1325,6.1329,6.1353,6.1352,6.1351,6.1361,6.1365,6.1391,6.1347,6.1348,6.1343,6.1341,6.1359,6.136,6.1367,6.1408,6.1409,6.1366,6.1367,6.1368,6.1369,0,0,0,0,0,0,0,6.1323,6.1328,6.1373,6.1353,6.1352,6.1342,6.1344,6.137,6.1363,6.1347,6.1345,6.1347,6.1358,6.1365,6.1367,6.1409,6.1366,6.1368,6.1369,6.137,6.1491,6.1493,0,0,0,0,0,0,6.1324,6.1327,6.1373,6.1373,6.1333,6.1345,6.1346,6.1359,6.1362,6.1361,6.1349,6.1346,6.1362,6.1365,6.1368,6.1425,6.1368,6.137,6.1371,6.1489,6.1491,6.1494,0,0,0,0,0,0,6.1323,6.1329,6.1372,6.1349,6.1354,6.1348,6.1363,6.136,6.1368,6.1363,6.1362,6.1358,6.1361,6.1364,6.1398,6.1424,6.1371,6.1373,6.1487,6.149,6.1493,6.1539,0,0,0,0,0,0,6.1321,6.1329,6.1347,6.135,6.1356,6.1403,6.1364,6.1362,6.1372,6.1368,6.1371,6.137,6.136,6.1395,6.14,6.1427,6.1375,6.1484,6.1488,6.1492,6.1535,6.1543,6.155,0,0,0,0,0,6.1319,6.1358,6.1348,6.1354,6.1379,6.1404,6.1407,6.1395,6.1374,6.1393,6.139,6.137,6.1421,6.1399,6.1404,6.1432,6.1483,6.1487,6.1491,6.1532,6.1541,6.155,0,0,0,0,0,0,6.1357,6.1358,6.1347,6.1388,6.1397,6.1398,6.1421,6.1406,6.142,6.1415,6.1399,6.14,6.1437,6.1438,6.1413,6.1479,6.1448,6.1454,6.1477,6.1486,6.1494,6.1492,6.1377,0,0,0,0,0,6.137,6.1392,6.1392,6.1428,6.1433,6.1427,6.1437,6.1428,6.1435,6.1438,6.1438,6.1445,6.1463,6.1475,6.1491,6.1536,6.1536,6.1557,6.1565,6.1571,6.1575,6.16,6.1609,6.1508,6.1508,6.1508,0,0,6.1397,6.1401,6.1415,6.1436,6.1441,6.1464,6.143,6.1454,6.147,6.1441,6.1474,6.1474,6.1481,6.1521,6.1538,6.1523,6.1604,6.1576,6.1581,6.1583,6.1605,6.1615,6.1623,6.1511,6.151,6.151,0,0,6.1458,6.1463,6.1495,6.1502,6.1511,6.1506,6.1514,6.1518,6.1518,6.155,6.153,6.1549,6.1579,6.1586,6.1593,6.1659,6.1641,6.1665,6.1703,6.1727,6.1735,6.1742,6.1766,6.1774,6.167,6.167,6.167,0,6.149,6.1524,6.1512,6.1539,6.1549,6.1526,6.1558,6.1565,6.1578,6.1585,6.1568,6.1607,6.1611,6.1652,6.1668,6.1675,6.1683,6.1663,6.1735,6.1742,6.1748,6.177,6.1779,6.1673,6.1672,6.1672,6.1672,0,6.1563,6.1587,6.1611,6.1627,6.1639,6.1668,6.1661,6.1676,6.1666,6.1663,6.1697,6.1701,6.1717,6.1727,6.1716,6.1767,6.1757,6.1738,6.1706,6.1761,6.1781,6.179,6.1677,6.1676,6.1675,6.1674,0,0,6.1645,6.1656,6.1665,6.1673,6.1683,6.17,6.1729,6.1747,6.1759,6.177,6.1793,6.1821,6.1804,6.1812,6.1803,6.1824,6.1877,6.1802,6.1802,6.1816,6.1933,6.1946,6.1956,6.1866,6.1867,6.1869,6.1932,0,6.1705,6.1755,6.1747,6.1796,6.1818,6.1797,6.1822,6.1831,6.183,6.1848,6.1846,6.1866,6.1842,6.1847,6.1868,6.1866,6.19,6.1862,6.1886,6.1887,6.1884,6.1967,6.1981,6.2041,6.194,6.1941,6.1942,0,6.1781,6.1797,6.1848,6.1856,6.1865,6.1888,6.1904,6.1922,6.1932,6.1929,6.194,6.1927,6.1956,6.1925,6.1964,6.1938,6.1948,6.1949,6.1951,6.1952,6.1917,6.197,6.2059,6.2068,6.1955,6.1954,6.1953,0,6.1836,6.187,6.1905,6.1912,6.1922,6.1939,6.1944,6.1952,6.1964,6.1978,6.1985,6.2003,6.2012,6.2025,6.2017,6.1996,6.2057,6.2026,6.2055,6.2056,6.2068,6.2067,6.216,6.2076,6.2076,6.2076,6.2076,0,6.1904,6.1936,6.193,6.1952,6.1987,6.1978,6.2013,6.2015,6.2023,6.2044,6.2028,6.2048,6.2037,6.2056,6.205,6.2083,6.2087,6.2086,6.2084,6.2087,6.2087,6.2092,6.2087,6.2078,6.2078,6.2077,6.2077,0,6.197,6.1968,6.2005,6.2013,6.2016,6.2041,6.2047,6.2067,6.2066,6.2093,6.2099,6.2097,6.2119,6.2113,6.2136,6.2132,6.2174,6.2167,6.2171,6.2169,6.2199,6.2196,6.2297,6.231,6.2219,6.222,6.2221,0,6.2013,6.2037,6.2049,6.2063,6.2069,6.2091,6.2104,6.2097,6.211,6.2124,6.2143,6.2164,6.218,6.2216,6.2215,6.2234,6.2226,6.2261,6.2229,6.2231,6.2226,6.2225,6.2227,6.2267,6.2268,6.2269,6.2269,0,6.2089,6.2087,6.2107,6.2127,6.2143,6.2158,6.2171,6.2183,6.2177,6.2193,6.2216,6.2229,6.2254,6.2275,6.2292,6.2296,6.2281,6.228,6.2287,6.229,6.2292,6.2291,6.2188,6.2277,6.2276,6.2276,6.2275,6.2275,6.2144,6.2166,6.2177,6.22,6.221,6.2223,6.2243,6.2245,6.2265,6.2286,6.228,6.2306,6.2316,6.2338,6.2344,6.2365,6.2351,6.2362,6.2365,6.2368,6.2371,6.229,6.2368,6.2367,6.2367,6.2367,6.2367,0,6.2219,6.2227,6.2248,6.2268,6.2286,6.2273,6.2288,6.2303,6.2327,6.2339,6.2356,6.2383,6.2403,6.2406,6.2425,6.2441,6.2435,6.2446,6.2444,6.2446,6.2382,6.2374,6.2451,6.2451,6.2451,6.2451,6.2451,6.2451,6.226,6.2296,6.2296,6.2336,6.2343,6.237,6.238,6.2392,6.2401,6.2432,6.245,6.2452,6.246,6.248,6.2499,6.2499,6.2506,6.252,6.2518,6.2458,6.245,6.2442,6.2433,6.2522,6.2522,6.2579,6.258,6.258]}]]